#timestamp,LO_Frequency,Hit,StdDev 
1679853615.2,286047004.2,P
1679853635.1,286047003.3,N
1679853636.0,286047003.3,P
1679853655.8,286047003.8,Y
1679853675.6,286047000.1,P
1679853695.5,286046999.9,N
1679853715.3,286047000.5,N
1679853735.2,286047001.1,N
1679853755.9,286047000.9,N
1679853775.7,286047000.7,N
1679853795.6,286046999.0,N
1679853815.4,286047001.2,N
1679853835.2,286047001.0,N
1679853855.1,286047000.4,N
1679853856.0,286047000.4,N
1679853875.8,286046998.9,N
1679853895.7,286046999.5,N
1679853915.5,286046999.0,N
1679853935.3,286046999.0,N
1679853955.2,286046999.2,N
1679853975.0,286046998.4,N
1679853975.9,286046998.4,N
1679853995.8,286046998.5,N
1679854015.6,286047000.7,N
1679854035.4,286047000.5,N
1679854055.3,286047000.7,N
1679854075.1,286047000.8,N
1679854095.8,286047001.1,N
1679854115.7,286047002.3,N
1679854135.5,286046998.6,N
1679854155.4,286046998.4,N
1679854175.2,286046998.3,N
1679854195.0,286046999.0,N
1679854195.9,286046999.0,N
1679854215.8,286046998.6,N
1679854235.6,286047001.1,N
1679854255.5,286047001.1,N
1679854275.3,286046998.2,N
1679854295.1,286047001.1,N
1679854315.9,286047000.3,N
1679854335.7,286047000.4,N
1679854355.6,286046998.9,N
1679854375.4,286046996.9,N
1679854395.2,286046999.3,N
1679854415.1,286047001.2,N
1679854416.0,286047001.2,N
1679854435.8,286046999.3,N
1679854455.7,286046999.2,N
1679854475.5,286046998.4,N
1679854495.3,286046997.4,N
1679854515.2,286046996.2,N
1679854535.0,286046993.3,Y
1679854535.9,286046993.3,P
1679854555.8,286046995.0,N
1679854575.6,286046997.3,N
1679854595.4,286046996.5,N
1679854615.3,286046997.6,N
1679854635.1,286046997.8,N
1679854655.8,286046996.5,N
1679854675.7,286046998.3,N
1679854695.5,286047001.1,N
1679854715.4,286046998.5,N
1679854735.2,286047000.1,N
1679854755.0,286047002.7,N
1679854755.9,286047002.7,N
1679854775.8,286047000.8,N
1679854795.6,286047001.2,N
1679854815.5,286046998.5,N
1679854835.3,286047000.8,N
1679854855.1,286047000.6,N
1679854875.9,286046998.5,N
1679854895.7,286047001.0,N
1679854915.5,286047000.8,N
1679854935.4,286047000.3,N
1679854955.2,286047000.5,N
1679854975.1,286047002.4,N
1679854976.0,286047002.4,N
1679854995.8,286047002.5,N
1679855015.6,286046999.8,N
1679855035.5,286047002.6,N
1679855055.3,286047002.3,N
1679855075.1,286047002.4,N
1679855095.9,286046999.7,N
1679855115.7,286047000.2,N
1679855135.6,286046999.8,N
1679855155.4,286046999.8,N
1679855175.2,286047000.3,N
1679855195.1,286046999.7,N
1679855196.0,286046999.7,N
1679855215.8,286047000.9,N
1679855235.7,286047001.2,N
1679855255.5,286047000.9,N
1679855275.3,286047001.0,N
1679855295.2,286047000.9,N
1679855315.0,286047002.4,N
1679855315.9,286047002.4,N
1679855335.7,286047002.3,N
1679855355.6,286046999.9,N
1679855375.4,286047000.0,N
1679855395.3,286046998.5,N
1679855415.1,286047001.0,N
1679855416.0,286047001.0,N
1679855435.8,286046998.2,N
1679855455.7,286046999.2,N
1679855475.5,286046998.7,N
1679855495.3,286046998.1,N
1679855515.2,286047000.8,N
1679855535.0,286047001.4,N
1679855535.9,286047001.4,N
1679855555.8,286047001.7,N
1679855575.6,286047002.3,N
1679855595.4,286047002.4,N
1679855615.3,286047002.4,N
1679855635.1,286047002.8,N
1679855655.9,286046999.9,N
1679855675.7,286047001.8,N
1679855695.5,286047003.6,N
1679855715.4,286047003.5,N
1679855735.2,286047003.2,N
1679855755.0,286047004.3,N
1679855755.9,286047004.3,N
1679855775.8,286047002.4,N
1679855795.6,286047001.1,N
1679855815.5,286047000.7,N
1679855835.3,286047000.5,N
1679855855.1,286047000.1,N
1679855875.9,286047002.1,N
1679855895.7,286047001.4,N
1679855915.5,286047001.5,N
1679855935.4,286047000.3,N
1679855955.2,286047000.3,N
1679855975.1,286047000.0,N
1679855976.0,286047000.0,N
1679855995.8,286047000.1,N
1679856015.6,286047000.8,N
1679856035.5,286047000.2,N
1679856055.3,286046999.8,N
1679856075.1,286047000.3,N
1679856095.9,286047002.8,N
1679856115.7,286047002.2,N
1679856135.6,286047001.6,N
1679856155.4,286047001.3,N
1679856175.2,286047004.3,Y
1679856195.1,286047001.9,P
1679856196.0,286047001.9,P
1679856215.8,286047003.3,P
1679856235.7,286047003.9,Y
1679856255.5,286047002.3,P
1679856275.3,286047000.6,P
1679856295.2,286046998.3,N
1679856315.0,286047001.0,N
1679856315.9,286047001.0,N
1679856335.8,286047002.4,N
1679856355.6,286046999.9,N
1679856375.4,286047002.7,N
1679856395.3,286047000.4,N
1679856415.1,286047001.2,N
1679856435.9,286047002.7,N
1679856455.7,286047002.8,N
1679856475.5,286046999.7,N
1679856495.4,286047000.3,N
1679856515.2,286046999.8,N
1679856535.0,286047000.2,N
1679856535.9,286047000.2,N
1679856555.8,286047000.7,N
1679856575.6,286046999.2,N
1679856595.5,286046996.6,N
1679856615.3,286046999.6,N
1679856635.1,286046998.4,N
1679856655.9,286046999.3,N
1679856675.7,286046998.2,N
1679856695.6,286047000.3,N
1679856715.4,286046998.5,N
1679856735.2,286046998.3,N
1679856755.1,286046996.6,N
1679856756.0,286046996.6,N
1679856775.8,286047001.1,N
1679856795.7,286047001.0,N
1679856815.5,286047002.3,N
1679856835.3,286047001.0,N
1679856855.2,286047000.5,N
1679856875.0,286047000.0,N
1679856875.9,286047000.0,N
1679856895.8,286047003.0,N
1679856915.6,286047004.0,N
1679856935.4,286046999.9,N
1679856955.3,286047000.0,N
1679856975.1,286047000.7,N
1679856995.8,286047001.0,N
1679857015.7,286047000.6,N
1679857035.5,286047000.1,N
1679857055.4,286047000.4,N
1679857075.2,286047002.4,N
1679857095.0,286047000.2,N
1679857095.9,286047000.2,N
1679857115.8,286047000.8,N
1679857135.6,286047000.8,N
1679857155.5,286047000.0,N
1679857175.3,286047001.0,N
1679857195.1,286047000.7,N
